Location: Lussas
(44.6119°N, 4.4726°E)
Time: 13:38:24
(UTC+00:00)

NOSS 3-2 (C) - Pass Details

Date: 26 November 2020
Orbit: 789 x 1424 km, 63.4° (Epoch: 09 January)

Event Time Altitude Azimuth Distance (km) Brightness Sun altitude
Exits shadow 04:20:36 40° 322° (NW) 1,768 4.5 -26.7°
Maximum altitude 04:23:55 89° 234° (SW) 1,304 4.0 -26.1°
Drops below altitude 10° 04:32:30 10° 146° (SE) 3,466 6.8 -24.5°
Sets 04:35:30 0° 146° (SE) 4,471 7.5 -24.0°
